www.pogodaiklimat.ru

Погода и климат >> Архив погоды >> Великобритания >> Фарнборо


ПОГОДА в Фарнборо

  • Прогноз погоды в Фарнборо
  • Монитор погоды в Фарнборо

АРХИВ ПОГОДЫ в Фарнборо

Время (UTC), дата Ветер
(напр.,м/с)
 
Видим.   Явления Облачность Т
(С)
Тd
(С)
f
(%)
Тe
(С)
Тes
(С)
Комфортность P
(гПа)
Po
(гПа)
Тmin
(С)
Tmax
(С)
R
(мм)
R24
(мм)
S
(см)
13 15.09 З 2 60 км н/о +23.8 +13.2 51 +26 +26 жарко 1024.1 1016.5
14 15.09 З 3 >70 км н/о +24.9 +13.5 49 +27 +27 жарко 1023.2 1015.7
15 15.09 З 3 70 км н/о +24.8 +13.6 50 +27 +27 жарко 1022.9 1015.4
16 15.09 СЗ 4 70 км н/о +24.4 +13.6 51 +27 +27 жарко 1022.5 1014.9
17 15.09 СЗ 4 70 км н/о +23.7 +13.6 53 +26 +26 жарко 1022.2 1014.6
18 15.09 З 2 65 км н/о +22.0 +13.6 59 +25 +25 комфорт 1022.3 1014.7 +25.5
19 15.09 ЮЗ 2 50 км н/о +18.2 +13.6 75 +19 +19 1022.7 1014.9
20 15.09 З 2 45 км н/о +17.3 +13.7 79 +18 +18 1022.9 1015.1
21 15.09 ЮЗ 2 30 км н/о +15.0 +12.2 83 +15 +15 1022.9 1015.1
22 15.09 З 2 29 км н/о +15.4 +14.3 93 +15 +15 1023.0 1015.2
23 15.09 З 3 26 км н/о +15.6 +13.9 90 +15 +15 1022.8 1014.9
00 16.09 З 3 17 км н/о +15.2 +14.0 93 +14 +14 1022.7 1014.8
01 16.09 З 2 8000 м н/о +14.3 +13.5 95 +14 +14 1022.6 1014.8
02 16.09 З 2 5000 м н/о +14.6 +14.0 96 +14 +14 1022.3 1014.5
03 16.09 З 2 6000 м н/о +14.7 +14.0 96 +14 +14 1021.9 1014.0
04 16.09 З 3 6000 м н/о +14.8 +13.9 94 +14 +14 1021.7 1013.9
05 16.09 З 2 12 км н/о +14.7 +13.8 94 +15 +15 1021.3 1013.5
06 16.09 З 2 20 км н/о +14.7 +13.7 94 +14 +14 1021.3 1013.5 +14.0
07 16.09 ЮЗ 2 23 км н/о +15.1 +13.9 93 +15 +15 1021.7 1013.8
08 16.09 СЗ 2 22 км н/о +15.9 +14.3 90 +16 +16 1021.9 1014.1
09 16.09 З 3 28 км н/о +16.9 +14.5 86 +17 +17 1022.2 1014.4
10 16.09 З 3 30 км н/о +18.2 +14.7 80 +19 +19 1022.2 1014.4
11 16.09 З 3 30 км н/о +18.5 +14.8 79 +19 +19 1022.2 1014.4
12 16.09 З 3 40 км н/о +19.4 +14.9 75 +21 +21 комфорт 1021.9 1014.2
13 16.09 СЗ 3 30 км н/о +19.8 +15.0 74 +22 +22 комфорт 1021.7 1014.0
14 16.09 СЗ 2 40 км н/о +19.8 +15.4 76 +23 +23 комфорт 1021.6 1013.9
15 16.09 СЗ 4 40 км н/о +19.0 +15.0 78 +20 +20 1021.7 1013.9
16 16.09 СЗ 4 5000 м н/о +17.4 +15.6 89 +17 +17 1021.8 1014.0
17 16.09 С 2 50 км н/о +17.0 +15.8 93 +17 +17 1021.9 1014.1
18 16.09 С 3 50 км н/о +17.2 +15.4 89 +17 +17 1022.1 1014.3 +20.0
19 16.09 СВ 2 30 км н/о +16.9 +14.8 87 +17 +17 1022.4 1014.7
20 16.09 СВ 2 30 км н/о +16.5 +14.3 87 +17 +17 1022.8 1015.0
21 16.09 С 2 27 км н/о +16.1 +13.5 85 +16 +16 1023.4 1015.5
22 16.09 С 2 35 км н/о +15.3 +12.6 84 +15 +15 1023.3 1015.5
23 16.09 СЗ 1 35 км н/о +14.2 +12.6 90 +14 +14 1023.5 1015.6
00 17.09 СЗ 2 35 км н/о +14.6 +12.5 87 +14 +14 1023.5 1015.6
01 17.09 С 2 45 км н/о +14.5 +11.1 80 +14 +14 1023.6 1015.7
02 17.09 С 4 22 км н/о +13.7 +9.8 77 +12 +12 1023.7 1015.9
03 17.09 С 3 35 км н/о +11.9 +8.3 79 +10 +10 1024.0 1016.1
04 17.09 З 2 30 км н/о +10.0 +7.8 86 +9 +9 1024.0 1016.0
05 17.09 З 2 25 км н/о +9.5 +7.9 90 +8 +8 1024.3 1016.3
06 17.09 З 1 27 км н/о +8.7 +7.7 93 +8 +8 1024.5 1016.5 +8.2
07 17.09 СЗ 2 28 км н/о +9.5 +8.2 92 +8 +8 1025.1 1017.1
08 17.09 С 4 35 км н/о +11.7 +8.2 79 +10 +10 1025.3 1017.4
09 17.09 СЗ 4 40 км н/о +13.7 +8.5 71 +12 +12 1025.6 1017.7
10 17.09 С 4 55 км н/о +15.3 +8.0 62 +15 +15 1025.6 1017.7
11 17.09 С 5 50 км н/о +16.4 +7.8 57 +16 +16 1025.2 1017.4
12 17.09 С 5 45 км н/о +17.0 +6.9 51 +16 +16 1025.4 1017.6
13 17.09 С 5 50 км н/о +18.1 +5.5 43 +18 +18 1025.0 1017.3
14 17.09 С 4 50 км н/о +19.2 +6.1 42 +20 +20 1025.0 1017.2
15 17.09 С 5 55 км н/о +18.7 +5.3 41 +19 +19 1025.1 1017.4
16 17.09 С 4 50 км н/о +18.5 +5.5 42 +19 +19 1024.9 1017.2
17 17.09 СВ 4 50 км н/о +18.0 +5.0 42 +18 +18 1025.3 1017.5
18 17.09 СВ 4 50 км н/о +16.8 +6.0 49 +16 +16 1025.7 1017.9 +19.5
19 17.09 СВ 3 45 км н/о +14.9 +6.3 56 +14 +14 1026.2 1018.3
20 17.09 СВ 3 40 км н/о +13.6 +6.3 61 +13 +13 1026.7 1018.8
21 17.09 СВ 3 40 км н/о +13.1 +6.7 65 +12 +12 1027.3 1019.4
22 17.09 СВ 3 35 км н/о +11.6 +6.1 69 +10 +10 1028.0 1020.0
23 17.09 ЮВ 1 35 км н/о +7.6 +5.2 85 +8 +8 1028.3 1020.2
00 18.09 СВ 1 30 км н/о +6.7 +5.4 91 +7 +7 1028.7 1020.6
01 18.09 ЮЗ 1 26 км н/о +5.3 +4.5 95 +4 +4 1028.7 1020.6
02 18.09 ЮЗ 2 24 км н/о +4.0 +2.9 93 +2 +2 1028.8 1020.6
03 18.09 З 1 24 км н/о +4.1 +3.6 97 +4 +4 1029.0 1020.8
04 18.09 ЮЗ 1 26 км н/о +3.3 +2.8 97 +2 +2 1029.1 1020.9
05 18.09 З 1 20 км н/о +2.8 +2.5 98 +2 +2 1029.4 1021.2
06 18.09 ЮЗ 1 20 км н/о +3.2 +2.9 98 +3 +3 1029.7 1021.5 +2.4
07 18.09 З 1 19 км н/о +5.0 +4.9 99 +5 +5 1030.1 1021.9
08 18.09 СЗ 1 27 км н/о +9.2 +7.3 88 +9 +9 1030.3 1022.2
09 18.09 СВ 3 29 км н/о +13.4 +7.0 65 +12 +12 1030.5 1022.5
10 18.09 СВ 3 30 км н/о +14.8 +5.6 54 +14 +14 1030.4 1022.5
11 18.09 СВ 2 35 км н/о +16.4 +5.5 48 +17 +17 1030.3 1022.4
12 18.09 В 3 35 км н/о +16.9 +5.3 46 +17 +17 1029.9 1022.1
13 18.09 СВ 4 35 км н/о +18.3 +5.7 44 +18 +18 1029.4 1021.6
14 18.09 СВ 4 40 км н/о +18.7 +5.6 42 +19 +19 1029.3 1021.5
15 18.09 СВ 3 40 км н/о +18.4 +5.0 41 +19 +19 1029.0 1021.2
16 18.09 СВ 4 35 км н/о +18.7 +5.5 42 +19 +19 1028.5 1020.7
17 18.09 СВ 2 35 км н/о +18.3 +6.0 44 +19 +19 1028.5 1020.7
18 18.09 СВ 3 40 км н/о +16.8 +5.4 47 +17 +17 1028.7 1020.9 +19.2
19 18.09 С 2 35 км н/о +15.0 +6.0 55 +15 +15 1029.2 1021.3
20 18.09 ЮЗ 1 35 км н/о +9.4 +5.6 77 +9 +9 1029.9 1021.9
21 18.09 Ю 1 35 км н/о +8.3 +5.7 84 +8 +8 1030.3 1022.2
22 18.09 ЮЗ 1 35 км н/о +7.2 +5.1 86 +6 +6 1030.7 1022.6
23 18.09 ЮЗ 1 35 км н/о +7.1 +5.4 89 +7 +7 1030.9 1022.8
00 19.09 ЮЗ 1 40 км н/о +7.0 +5.9 93 +7 +7 1031.2 1023.1
01 19.09 ЮЗ 1 30 км н/о +6.0 +4.9 93 +6 +6 1031.2 1023.1
02 19.09 ЮЗ 2 26 км н/о +4.7 +3.9 95 +2 +2 1031.1 1022.9
03 19.09 ЮЗ 2 30 км н/о +4.7 +4.2 97 +2 +2 1031.1 1022.9
04 19.09 ЮЗ 1 20 км н/о +4.1 +3.5 96 +2 +2 1031.2 1023.0
05 19.09 ЮЗ 1 30 км н/о +4.7 +4.3 97 +3 +3 1031.0 1022.8
06 19.09 ЮЗ 1 28 км н/о +4.2 +3.8 97 +3 +3 1031.5 1023.3 +3.9
07 19.09 ЮЗ 1 30 км н/о +6.1 +5.8 98 +6 +6 1031.9 1023.8
08 19.09 ЮВ 1 26 км н/о +11.1 +8.7 85 +12 +12 1032.2 1024.2
09 19.09 С 1 28 км н/о +14.1 +8.4 69 +15 +15 1032.3 1024.3
10 19.09 СВ 2 35 км н/о +16.6 +8.3 58 +17 +17 1032.0 1024.1
11 19.09 СВ 3 35 км н/о +17.3 +7.6 53 +17 +17 1031.7 1023.9
12 19.09 В 2 40 км н/о +18.4 +8.2 51 +19 +19 1031.4 1023.6
13 19.09 В 3 40 км н/о +19.1 +9.0 52 +20 +20 1030.8 1023.0
14 19.09 В 3 35 км н/о +19.8 +8.7 49 +21 +21 комфорт 1030.3 1022.6
15 19.09 СВ 3 30 км н/о +20.3 +9.0 48 +22 +22 комфорт 1029.7 1021.9
16 19.09 В 4 40 км н/о +20.3 +9.1 49 +22 +22 комфорт 1029.6 1021.8
17 19.09 В 3 40 км н/о +19.6 +9.0 50 +21 +21 комфорт 1029.3 1021.5
18 19.09 В 3 35 км н/о +17.7 +8.9 56 +18 +18 1029.2 1021.4 +20.7
19 19.09 В 4 35 км н/о +16.4 +9.5 64 +16 +16 1029.8 1022.0
20 19.09 В 2 35 км н/о +13.8 +8.5 70 +13 +13 1030.1 1022.1
21 19.09 ЮВ 2 40 км н/о +10.2 +6.0 75 +9 +9 1030.1 1022.1
22 19.09 ЮЗ 1 40 км н/о +9.4 +7.6 89 +9 +9 1030.2 1022.1
23 19.09 ЮЗ 2 40 км н/о +7.8 +6.2 90 +6 +6 1030.3 1022.2
00 20.09 ЮЗ 1 40 км н/о +7.6 +6.6 93 +8 +8 1030.0 1021.9
01 20.09 ЮЗ 1 35 км н/о +7.4 +6.7 95 +7 +7 1029.8 1021.6
02 20.09 ЮЗ 2 28 км н/о +6.4 +6.0 97 +4 +4 1029.4 1021.3
03 20.09 ЮЗ 1 17 км н/о +6.6 +6.4 99 +5 +5 1029.0 1020.8
04 20.09 ЮЗ 1 22 км н/о +5.5 +5.0 97 +4 +4 1028.6 1020.4
05 20.09 ЮЗ 1 24 км н/о +5.8 +5.5 98 +6 +6 1027.9 1019.7
06 20.09 ЮЗ 1 20 км н/о +4.7 +4.2 97 +4 +4 1027.9 1019.7 +4.1
07 20.09 З 1 15 км н/о +6.8 +6.7 99 +7 +7 1027.8 1019.7
08 20.09 В 5 20 км н/о +12.8 +10.3 85 +11 +11 1027.5 1019.6
09 20.09 В 5 25 км н/о +15.5 +9.6 68 +14 +14 1027.2 1019.4
10 20.09 В 7 35 км н/о +17.2 +7.8 54 +16 +16 1026.5 1018.7
11 20.09 В 6 50 км н/о +19.0 +7.7 48 +19 +19 1025.7 1017.9
12 20.09 В 7 50 км н/о +19.9 +6.4 41 +20 +20 1024.9 1017.1
13 20.09 В 6 45 км н/о +20.9 +6.8 40 +22 +22 комфорт 1024.2 1016.5
14 20.09 В 6 50 км н/о +21.5 +4.7 33 +22 +22 комфорт 1023.2 1015.5
15 20.09 В 7 >70 км н/о +21.5 +3.2 30 +22 +22 комфорт 1022.2 1014.6
16 20.09 В 6 45 км н/о +21.3 +4.1 32 +22 +22 комфорт 1021.2 1013.5
17 20.09 В 7 35 км н/о +19.2 +6.9 45 +19 +19 1020.5 1012.8
18 20.09 В 6 40 км н/о +16.7 +7.3 54 +16 +16 1020.2 1012.4 +22.0
19 20.09 В 4 30 км н/о +15.0 +8.1 63 +14 +14 1020.2 1012.4
20 20.09 В 5 30 км н/о +13.8 +8.6 71 +12 +12 1019.8 1012.0
21 20.09 В 3 29 км н/о +12.3 +8.1 76 +11 +11 1019.8 1011.9
22 20.09 В 5 30 км н/о +13.4 +8.4 72 +12 +12 1019.0 1011.1
23 20.09 В 3 30 км н/о +12.4 +8.1 75 +11 +11 1018.5 1010.6
00 21.09 В 3 30 км н/о +11.0 +7.7 80 +9 +9 1017.9 1010.0
01 21.09 В 3 30 км н/о +9.9 +6.1 77 +8 +8 1017.3 1009.3
02 21.09 В 4 35 км н/о +9.2 +6.2 81 +6 +6 1016.5 1008.6
03 21.09 В 4 35 км н/о +11.0 +6.7 75 +9 +9 1015.8 1007.9
04 21.09 В 5 40 км н/о +11.7 +6.5 70 +9 +9 1015.2 1007.3
05 21.09 В 4 40 км н/о +10.6 +6.3 75 +8 +8 1014.8 1006.9
06 21.09 В 2 35 км н/о +6.5 +4.4 86 +5 +5 1014.8 1006.8 +6.1
07 21.09 В 2 40 км н/о +9.3 +7.9 91 +8 +8 1014.5 1006.5
08 21.09 В 4 35 км н/о +14.0 +8.2 68 +13 +13 1013.9 1006.1
09 21.09 В 5 40 км н/о +16.7 +9.2 61 +16 +16 1013.5 1005.8
10 21.09 В 5 40 км н/о +19.0 +9.7 55 +20 +20 1012.8 1005.2
11 21.09 В 5 40 км н/о +21.0 +10.0 49 +23 +23 комфорт 1011.9 1004.3
12 21.09 В 6 35 км н/о +23.0 +9.6 43 +25 +25 комфорт 1011.2 1003.6
13 21.09 ЮВ 6 40 км н/о +24.1 +9.4 39 +25 +25 комфорт 1010.3 1002.8
14 21.09 ЮВ 6 45 км н/о +24.5 +9.9 40 +25 +25 комфорт 1009.7 1002.2
15 21.09 ЮВ 6 45 км н/о +24.8 +10.5 41 +26 +26 жарко 1009.1 1001.6
16 21.09 ЮВ 6 45 км н/о +24.6 +9.8 39 +25 +25 комфорт 1008.5 1001.0
17 21.09 ЮВ 5 45 км н/о +22.3 +11.0 49 +24 +24 комфорт 1008.3 1000.8
18 21.09 В 4 35 км н/о +20.4 +11.1 55 +22 +22 комфорт 1008.0 1000.4 +25.3
19 21.09 В 3 40 км н/о +18.2 +11.0 63 +19 +19 1007.8 1000.2
20 21.09 В 3 30 км н/о +17.9 +11.1 64 +18 +18 1007.6 1000.0
21 21.09 В 4 30 км н/о +17.5 +11.1 66 +17 +17 1007.2 999.5
22 21.09 В 2 27 км н/о +15.8 +10.5 71 +16 +16 1006.7 999.0
23 21.09 В 1 28 км н/о +15.1 +11.3 78 +16 +16 1006.3 998.6
00 22.09 В 2 28 км н/о +16.1 +12.1 77 +16 +16 1005.6 997.9
01 22.09 ЮВ 3 30 км н/о +17.8 +12.9 73 +18 +18 1004.9 997.3
02 22.09 ЮВ 3 30 км н/о +18.1 +13.2 73 +19 +19 1004.1 996.5
03 22.09 ЮВ 3 30 км н/о +17.4 +13.4 77 +18 +18 1003.6 996.0
04 22.09 ЮВ 3 30 км н/о +17.5 +13.9 79 +17 +17 1003.2 995.6
05 22.09 ЮВ 4 29 км н/о +17.8 +14.3 80 +18 +18 1002.9 995.3
06 22.09 ЮВ 5 27 км н/о +17.7 +15.1 85 +17 +17 1003.0 995.3 +14.8
07 22.09 ЮВ 5 25 км н/о +18.2 +15.4 84 +18 +18 1002.6 995.0
08 22.09 ЮВ 4 29 км н/о +19.2 +16.0 82 +21 +21 комфорт 1002.7 995.1
09 22.09 ЮВ 5 29 км н/о +20.7 +16.8 78 +24 +24 комфорт 1002.5 994.9
10 22.09 ЮЗ 5 30 км н/о +20.1 +16.0 77 +23 +23 комфорт 1002.6 995.0
11 22.09 З 3 3300 м н/о +15.9 +15.2 96 +16 +16 1003.3 995.7
12 22.09 ЮЗ 2 13 км н/о +16.9 +15.6 92 +17 +17 1003.3 995.7 6
13 22.09 Ю 6 8000 м н/о +17.2 +15.0 87 +16 +16 1003.9 996.3

 

Местоположение метеостанции Фарнборо (Великобритания): широта 51.28 долгота -0.77 высота над уровнем моря 64 м.

В архиве по умолчанию представлена погода в Фарнборо за последнюю неделю. Архивные данные за месяц целиком и за предыдущие месяцы, начиная с января 2011 года, Вы можете получить, выбрав интересующий диапазон дат из раскрывающегося списка и нажав кнопку "Ввод!".


*Определитесь, кто Вы:
робот инопланетянин человек

Внимание! Время в таблицах - всемирное. Для получения местного времени необходимо прибавить поправку, которая равна 0 ч.

Смотрите также архив погоды в соседних городах и на ближайших метеорологических станциях:

Погода в Одихеме (Великобритания) (14 км)
Погода в Чарлвуде (Великобритания) (28 км)
Погода в Лондоне (Великобритания) (31 км)
Погода в Норхолте (Великобритания) (39 км)
Погода в Бенсоне (Великобритания) (43 км)
Погода в Хай-Уикоме (Великобритания) (45 км)
Погода на Аэродроме Кенли (Великобритания) (48 км)
Погода в Лондоне (Великобритания) (51 км)
Погода на Острове Торвер (Великобритания) (52 км)
Погода в Мидл Уоллоп (Великобритания) (58 км)

Пояснения к столбцам:

Ветер - указаны скорость ветра в м/с - средняя за 10 мин, порывы в срок и между сроками (в фигурных скобках) и направление, откуда дует ветер: С - северный, СВ - северо-восточный, В - восточный, ЮВ - юго-восточный, Ю - южный, ЮЗ - юго-западный, З - западный, СЗ - северо-западный.
Видимость - горизонтальная дальность видимости в метрах или километрах. При видимости от 1 до 10 км при отсутствии осадков обычно наблюдается дымка, при ухудшении видимости до 1 км и менее - туман. В сухую погоду видимость может ухудшаться дымом, пылью или мглою.
Явления - указаны атмосферные явления, наблюдавшиеся в срок или в последний час перед сроком; фигурными скобками обозначены явления, наблюдавшиеся между сроками (за 1-3 часа до срока); квадратными скобками обозначены град или гололедные отложения с указанием их диаметра в мм.
Облачность - указаны через наклонную черту общая и нижняя облачность в баллах и высота нижней границы облаков в метрах; квадратными скобками обозначены формы облаков: Ci - перистые, Cs - перисто-слоистые, Cc - перисто-кучевые, Ac - высококучевые, As - высокослоистые, Sc - слоисто-кучевые, Ns - слоисто-дождевые, Cu - кучевые, Cb - кучево-дождевые. Подробнее классификацию облаков см. в Атласе облаков (PDF).
T - Температура воздуха - температура, измеренная на высоте 2 м над землей.
Td - Температура точки росы - температура, при понижении до которой содержащийся в воздухе водяной пар достигнет насыщения.
f - Относительная влажность воздуха - влажноcть воздуха, измеренная на высоте 2 м над землей.
Te - Эффективная температура - температура, которую ощущает одетый по сезону человек в тени. Характеристика душности погоды. При расчете учитывается влияние влажности воздуха и скорости ветра на теплоощущения человека.
Tes - Эффективная температура на солнце - температура, которую ощущает человек, с поправкой на солнечный нагрев. Характеристика знойности погоды. Зависит от высоты солнца над горизонтом, облачности и скорости ветра. Ночью, в пасмурную погоду, а также при ветре 12 м/с и более поправка равна нулю.
P - Атмосферное давление - приведенное к уровню моря атмосферное давление.
Po - Атмосферное давление - измеренное на уровне метеостанции атмосферное давление.
Tmin - Минимальная температура - минимум температуры воздуха на высоте 2 м над землей.
Tmax - Максимальная температура - максимум температуры воздуха на высоте 2 м над землей.
R - Количество осадков - Количество выпавших осадков за период времени, мм. При наведении курсора мыши на число - период времени, за который выпало указанное количество осадков.
R24 - Количество осадков - Количество выпавших осадков за 24 часа, мм.
S - Снежный покров - Высота снежного покрова, см. При наведении курсора мыши на число - состояние снежного покрова и степень покрытия местности в баллах.